Lid_Strength_Index
1 1 2 1 1 0 1 1 1 1 1 1 1 1 1 1 1 1 1 1 1 1 1 2 1 1 1 1 2 2 2 2 4 3 3 3 3 5 6 5 4 5 5
1 1 1 1 1 2 1 1 1 1 0 1 1 1 1 1 1 1 2 1 1 2 1 2 2 1 1 2 2 2 1 1 3 5 5 5 4 4 5 5 4 4 5
0 1 1 1 1 1 1 1 1 1 1 1 1 1 1 1 1 2 2 2 1 1 1 2 2 2 3 2 3 2 2 3 2 4 6 5 4 5 4 4 5 5 4
1 2 1 1 1 1 1 1 1 1 1 1 1 1 1 1 1 1 1 2 1 1 1 2 2 2 3 3 3 3 3 4 4 5 6 5 5 5 5 6 6 5 6
1 1 1 1 1 1 1 1 1 1 1 1 1 1 1 1 1 1 1 2 2 2 2 2 2 2 3 2 3 3 4 5 5 6 7 6 6 6 7 6 7 6 6
2 1 1 1 1 1 1 1 1 1 1 1 1 1 2 1 5 6 2 2 2 3 3 3 2 3 4 4 4 4 3 5 7 6 7 8 8 7 7 7 7 7 8
2 1 1 1 1 1 1 1 1 1 1 2 1 1 2 1 7 8 7 2 2 3 3 3 3 3 4 4 6 5 6 6 6 7 8 8 8 6 7 6 7 7 7
1 1 1 1 1 1 1 1 1 1 2 2 2 1 2 1 7 9 8 2 2 2 3 3 3 4 5 5 6 7 7 7 6 6 7 7 6 5 5 5 5 5 5
2 2 1 1 1 1 2 2 1 2 2 2 1 2 2 2 7 9 8 2 2 3 2 3 4 5 7 9 7 8 8 8 8 8 8 8 7 6 4 5 6 7 7
2 2 1 1 1 2 2 2 1 1 2 1 2 1 2 2 6 10 8 2 3 3 3 4 7 7 11 10 7 9 9 9 9 8 8 8 7 7 7 4 6 8 7
1 1 1 1 2 1 1 1 1 2 2 2 2 2 1 2 2 11 11 2 3 3 4 5 6 10 11 11 9 9 9 9 9 8 8 7 6 7 6 6 5 5 5
1 1 2 1 1 1 2 1 1 2 2 2 2 2 2 1 5 10 11 10 5 3 4 4 6 12 11 12 10 11 12 10 9 9 8 8 7 7 7 6 6 4 3
2 2 2 1 1 1 2 2 2 2 3 3 3 3 3 2 2 10 11 11 10 4 4 5 9 13 12 12 11 11 11 10 10 10 9 8 7 7 7 7 6 4 3
2 2 2 2 2 2 1 2 2 3 3 3 3 3 3 3 3 5 8 9 10 7 9 10 12 12 11 10 11 10 10 10 11 10 9 7 7 8 7 7 7 5 5
2 2 2 2 2 2 2 2 2 2 2 3 3 3 3 3 3 6 7 6 5 7 10 11 12 12 12 12 10 10 10 10 9 9 9 8 8 8 7 6 6 6 5
3 2 2 2 2 2 2 2 4 7 8 8 9 7 4 6 8 9 9 9 10 12 10 11 13 12 12 12 11 11 10 9 9 10 9 9 8 8 7 6 6 5 5
2 2 2 3 2 3 3 3 4 3 8 9 9 9 9 10 10 10 10 10 12 11 9 11 12 12 11 11 11 11 10 9 9 9 8 8 8 7 8 7 6 5 5
2 4 2 2 2 2 3 3 3 3 4 3 6 8 9 11 11 11 11 10 11 9 8 11 11 11 11 11 11 10 10 9 9 9 8 8 7 7 7 7 6 6 5
2 2 2 2 2 2 2 3 3 3 3 3 4 6 9 11 11 11 11 7 9 9 9 10 10 10 11 10 9 10 10 9 9 9 8 8 7 7 7 6 6 9 7
3 5 6 4 4 4 4 4 3 4 5 5 6 7 8 9 10 9 8 7 8 8 9 10 10 10 10 9 10 10 10 9 9 9 8 7 7 6 7 6 5 6 5
3 4 9 4 4 5 6 6 6 6 7 7 8 10 14 10 9 9 7 8 8 8 9 10 10 10 9 9 9 10 10 10 9 8 7 7 6 6 6 6 5 5 5
2 3 3 3 4 5 6 7 8 8 8 9 10 10 14 9 9 8 8 8 8 8 8 9 10 9 9 9 9 10 10 9 8 7 7 6 6 6 5 5 5 5 4
2 3 3 3 4 6 5 6 8 8 8 8 9 9 9 8 8 8 8 8 9 9 9 9 9 9 9 9 9 9 9 7 7 7 6 6 6 6 5 5 5 5 4
1 2 3 4 4 4 5 5 6 9 9 8 8 8 8 9 9 8 8 8 8 8 9 9 9 9 8 8 8 7 6 6 6 5 5 5 5 7 5 5 5 4 4
1 2 3 3 4 4 5 5 5 6 7 8 8 8 8 8 8 8 7 7 7 8 8 8 8 8 7 7 7 6 8 13 6 8 4 4 4 4 4 5 4 4 4
1 2 2 2 3 3 4 5 5 5 5 6 7 8 8 8 7 7 7 7 7 7 7 6 7 7 6 6 6 10 14 13 10 11 4 3 3 4 4 4 3 4 4